Weather Roundup
Issued by NWS Springfield, MO

Home | Current Version | Previous Version | Text Only | Print | Product List | Glossary On
Versions: 1 2 3 4 5 6 7 8 9 10 11 12 13 14 15 16 17 18 19 20 21 22 23 24 25 26 27 28 29 30 31 32 33 34 35 36 37 38 39 40 41 42 43 44 45 46 47 48 49 50
000
NZUS99 KSGF 010707
HRRSGF

HOURLY WEATHER
NATIONAL WEATHER SERVICE SPRINGFIELD MO
200 AM CDT WED JUL 01 2015

......SGF CWA......

CITY           SKY/WX    TMP DP  RH WIND       PRES   REMARKS
SPRINGFIELD    MOCLDY    76  70  82 S9        29.90F
JOPLIN         CLOUDY    80  72  76 S15       29.89F
WEST PLAINS    CLOUDY    74  68  81 SW5       29.96F
ROLLA          CLOUDY    72  70  93 SW3       29.93S
OSAGE BEACH    CLOUDY    73  68  83 S5        29.91F
BRANSON          N/A     75  70  83 CALM      29.95F

......SURROUNDING SGF CWA......

CITY           SKY/WX    TMP DP  RH WIND       PRES   REMARKS
CHANUTE        CLOUDY    79  70  74 S12       29.86F
PARSONS        MOCLDY    80  73  79 S9        29.88F
COFFEYVILLE    PTCLDY    79  72  79 S12       29.87F
EMPORIA        PTCLDY    79  64  60 S13       29.83F
GROVE OK       PTCLDY    81  72  74 S9        29.92F
ROGERS AR      MOCLDY    78  71  79 SW13      29.96F
SILOAM SPRINGS CLEAR     75  66  73 S9        29.97F
HARRISON AR    CLEAR     73  70  90 SE5       29.97F
NEAR YELLVILLE CLEAR     75  72  88 SW6       29.92F

......KANSAS AND MISSOURI......

CITY           SKY/WX    TMP DP  RH WIND       PRES   REMARKS
KANSAS CTY INT CLOUDY    70  66  87 E14       29.87F
DOWNTOWN KC    CLOUDY    71  68  90 E15       29.86F
COLUMBIA       RAIN      73  71  93 NE3       29.95R FOG
SEDALIA        LGT RAIN  73  69  87 NE7       29.93R FOG
ST JOSEPH      CLOUDY    74  65  73 E9        29.87F
ST LOUIS       CLOUDY    76  69  79 CALM      29.91F
SPIRIT OF STL  CLOUDY    72  70  93 CALM      29.90S
KIRKSVILLE     LGT RAIN  69  67  93 S5        29.93F FOG
WICHITA        MOCLDY    82  63  52 S14       29.86S
TOPEKA         MOCLDY    75  70  84 E9        29.82F
OLATHE         LGT RAIN  73  69  87 E15       29.87R

......TENNESSEE......

CITY           SKY/WX    TMP DP  RH WIND       PRES   REMARKS
MEMPHIS        PTCLDY    77  74  90 SW8       29.96F
NASHVILLE      PTCLDY    76  73  91 SW6       29.96S

......ARKANSAS.......

CITY           SKY/WX    TMP DP  RH WIND       PRES   REMARKS
FAYETTEVILLE   CLEAR     74  72  93 S9        29.97F
FT SMITH       CLEAR     79  70  74 S3        29.94F
LITTLE ROCK    PTCLDY    78  70  76 SW13      29.96F

......OKLAHOMA.......

CITY           SKY/WX    TMP DP  RH WIND       PRES   REMARKS
TULSA          MOCLDY    83  73  72 S16       29.91S
PONCA CITY     CLEAR     82  70  66 S7        29.90F
MCALESTER      CLEAR     80  72  76 S10       29.98F
OKLAHOMA CITY  PTCLDY    76  70  82 S8        29.97R

......IOWA............

CITY           SKY/WX    TMP DP  RH WIND       PRES   REMARKS
DES MOINES     CLOUDY    72  64  76 E7        29.91S
QUAD CITIES    CLOUDY    68  62  81 CALM      29.90R

......ILLINOIS........

CITY           SKY/WX    TMP DP  RH WIND       PRES   REMARKS
QUINCY         CLOUDY    70  68  93 W5        29.92R FOG
CHICAGO        CLOUDY    57  51  80 N7        29.93R



USA.gov is the U.S. government's official web portal to all federal, state and local government web resources and services.